Back to catalog

USA 173

AliveMilitaryLEO
NORAD 28095·PAYLOAD·🇺🇸 United States

Launched Dec 2, 2003 from Vandenberg Space Force Base

Loading…

Next Passes (next 24 hours)

TLE

StaleSource: Mike McCants

Epoch: Sep 5, 2026, 01:43 UTC

1 28095U 03054A   26248.07208579 0.00000000  00000-0  00000-0 0    09
2 28095  63.4041 327.0869 0577984  10.0055 349.9945 13.42084996    09

Track USA 173 in real time with AllMySat

Download on the App Store